Location: Auckland
(36.8500°S, 174.7800°E)
Time: 20:56:56

ISS - Visible Passes

Search period start: 22 March 2018 00:00
Search period end: 01 April 2018 00:00
Orbit: 403 x 406 km, 51.6° (Epoch: 22 March)

Date Brightness Start Highest point End Pass type
(mag) Time Alt. Az. Time Alt. Az. Time Alt. Az.
27 Mar -0.6 06:45:55 10° NNE 06:47:10 12° NE 06:48:26 10° ENE visible
29 Mar -2.0 06:35:51 10° NNW 06:38:47 30° NE 06:41:46 10° ESE visible
30 Mar -1.1 05:45:09 12° NNE 05:46:41 15° NE 05:48:41 10° E visible
31 Mar -3.8 06:28:24 20° NW 06:30:32 86° NE 06:33:52 10° SE visible
